Location: Boitzum
(52.1496°N, 9.6943°E)
Time: 08:50:50
(UTC+00:00)

USA 234 - Pass Details

Date: 13 January 2026
Orbit: 1102 x 1106 km, 123.0° (Epoch: 4 January)

Event Time Altitude Azimuth Distance (km) Brightness Sun altitude
Rises 06:35:04 0° 60° (ENE) 3,934 6.7 -7.4°
Reaches altitude 10° 06:37:34 10° 62° (ENE) 2,974 6.1 -7.0°
Maximum altitude 06:44:09 74° 148° (SSE) 1,152 3.6 -6.1°
Drops below altitude 10° 06:50:42 10° 233° (SW) 2,962 5.3 -5.3°
Sets 06:53:11 0° 235° (SW) 3,917 5.9 -4.9°
